Wind_Speed
27 26 26 26 27 28 28 29 30 30 31 32 33 34 36 37 38 39 40 41 42 44 46 46 47 49 49 50 50 51 53 53 53 52 52 52 52 53 53 53 53 53 53
24 24 24 24 25 26 26 27 27 27 28 29 31 32 33 33 35 36 38 39 40 41 43 45 47 48 49 49 50 51 51 52 52 52 52 52 52 52 52 52 54 55 55
22 22 23 23 23 24 24 25 25 25 25 26 27 28 29 30 32 34 36 37 38 40 43 45 46 47 48 50 51 51 51 51 52 53 52 52 53 52 51 51 53 54 54
22 22 21 21 21 22 22 22 23 23 23 23 24 26 27 29 31 33 35 37 37 38 40 42 44 45 47 49 50 50 50 50 52 53 53 53 53 52 52 51 51 51 52
19 19 19 20 20 21 21 21 22 22 23 23 25 26 27 29 31 32 34 35 36 37 37 39 41 43 44 46 47 49 49 50 51 52 52 53 53 52 51 50 49 49 50
16 17 18 19 19 20 21 22 23 24 24 25 26 27 28 29 30 31 32 33 34 35 37 38 40 42 43 44 46 46 47 48 49 51 51 51 52 52 51 50 49 48 48
17 17 19 20 21 22 22 23 23 24 26 27 27 28 29 29 30 31 32 32 34 35 37 39 41 40 42 43 45 45 45 45 47 48 48 49 50 51 50 49 48 47 46
18 20 21 22 23 23 24 24 25 26 27 28 29 29 29 30 31 32 33 34 35 36 37 38 39 39 41 42 43 44 44 44 44 45 46 46 47 48 48 48 48 48 46
20 21 22 23 24 24 24 25 26 27 28 29 30 31 31 31 32 33 35 35 36 36 37 38 39 41 41 43 43 44 43 42 42 43 44 44 44 45 46 47 47 47 45
22 23 23 23 25 26 26 27 28 29 30 31 32 32 33 34 34 35 35 35 36 36 37 37 39 40 41 42 43 43 42 42 42 43 43 42 43 43 43 44 45 45 45
24 24 25 26 27 28 28 29 29 30 31 32 32 33 33 34 34 34 34 35 35 36 35 35 37 38 39 40 40 39 39 39 40 41 41 41 41 41 41 42 43 43 43
27 27 28 29 29 30 30 30 31 32 32 33 33 33 34 34 34 34 34 35 35 35 35 35 35 35 36 36 36 36 36 37 37 38 39 39 39 39 39 39 39 40 39
29 30 30 31 31 32 32 32 32 33 33 34 34 34 34 35 35 35 35 36 35 35 34 34 34 34 34 33 34 34 33 34 35 36 36 36 36 37 37 37 37 37 37
31 32 33 33 33 34 34 34 35 35 35 36 36 36 36 36 36 36 36 36 35 34 33 32 32 32 33 32 32 33 33 33 34 34 34 35 34 35 35 36 36 36 35
34 34 34 35 35 36 36 37 37 37 38 38 38 38 38 38 38 38 38 37 35 34 34 33 33 33 33 33 33 33 33 33 33 33 34 33 33 34 35 35 35 36 35
36 36 36 36 37 37 38 38 39 39 39 39 39 40 40 40 40 40 39 38 37 37 35 34 34 34 34 34 33 33 33 33 33 33 33 33 33 34 34 35 35 35 35
37 38 38 38 39 39 40 39 39 40 40 41 41 41 41 41 40 40 40 39 39 38 37 37 36 36 35 34 34 33 34 33 33 33 32 32 33 33 34 34 34 33 34
39 40 40 40 41 41 41 41 40 40 40 41 41 41 41 41 40 40 39 39 39 39 38 37 36 36 35 34 34 34 34 33 32 32 32 32 33 33 33 33 33 32 32
40 41 42 42 42 42 43 42 42 42 42 41 41 42 42 41 41 40 39 39 39 38 37 36 36 36 35 35 34 34 33 32 32 32 32 32 32 32 32 32 31 31 30
42 42 43 43 43 43 43 43 43 43 43 43 42 42 42 42 41 40 39 39 38 37 36 36 35 35 35 34 34 33 32 32 31 31 31 31 31 31 30 30 30 30 29
43 43 43 43 43 43 43 44 44 44 44 43 43 43 43 42 41 40 39 38 37 36 35 35 35 34 34 34 33 33 32 32 31 31 30 30 30 30 29 29 29 28 28
43 42 42 42 42 43 43 44 44 45 44 44 44 44 43 42 40 39 38 38 37 36 35 34 34 33 33 33 33 32 32 31 31 30 30 29 29 29 28 28 27 26 26
42 42 42 43 43 44 44 45 45 45 45 45 44 43 42 41 39 38 38 38 36 35 35 35 34 33 32 32 31 30 30 30 30 29 29 28 28 28 27 27 26 25 25
42 43 43 44 44 44 45 46 46 45 45 44 42 42 41 39 38 37 37 36 35 34 33 33 32 31 30 30 29 28 28 27 27 27 27 26 27 27 26 25 25 24 24
42 42 43 44 45 45 45 45 45 44 43 42 40 39 39 37 36 36 35 33 32 31 31 30 30 29 29 28 27 26 26 26 26 26 25 25 25 25 25 24 24 24 23
41 42 43 43 44 44 43 43 43 42 41 40 38 37 36 34 34 33 33 31 30 29 29 29 28 27 27 25 25 25 25 25 25 25 25 24 24 23 23 23 22 22 22
Wind_Direction
284 284 284 286 285 284 283 284 284 282 279 277 274 272 271 270 270 269 269 269 267 262 260 260 260 259 260 263 264 264 264 264 265 265 264 265 267 267 269 271 272 272 274
286 285 286 288 287 286 287 288 287 285 283 281 277 274 273 271 272 272 272 270 268 265 262 262 262 261 262 264 265 267 267 266 266 266 265 267 269 270 271 272 272 272 272
288 287 288 289 289 289 290 290 290 290 287 287 283 279 277 276 276 276 275 273 271 268 265 264 265 263 264 265 266 267 267 268 267 266 266 267 267 270 272 272 272 272 272
291 289 288 291 291 293 294 294 292 291 292 291 288 285 282 280 280 279 277 275 274 273 269 267 267 266 266 267 268 268 268 268 268 268 267 267 268 270 271 272 273 272 272
296 295 293 295 296 295 297 297 296 295 295 293 291 289 289 287 284 282 281 279 276 275 273 270 270 269 268 269 269 269 268 267 268 269 269 268 269 270 272 273 274 273 273
300 302 301 300 300 299 299 299 299 298 297 295 294 294 294 292 289 287 287 284 280 277 274 273 273 273 271 271 271 271 271 270 270 271 270 270 269 270 271 273 273 274 273
301 304 307 305 302 302 302 301 301 300 298 297 296 296 297 297 295 292 289 289 285 282 279 277 276 276 274 272 272 272 273 273 272 272 271 271 270 270 271 271 272 274 276
299 301 304 305 305 303 302 301 301 300 299 298 298 298 297 297 296 295 293 292 290 287 284 281 279 279 277 276 275 274 274 274 273 273 272 271 271 270 270 271 271 272 275
300 302 304 305 306 305 303 302 302 302 301 300 299 298 297 296 295 295 294 293 293 291 288 284 281 280 279 279 278 276 275 274 274 273 271 271 271 271 271 271 272 272 274
300 303 305 306 307 306 304 304 303 302 303 302 300 299 297 297 296 297 296 294 293 292 289 286 283 283 280 279 279 276 274 274 273 274 273 272 272 273 274 274 275 274 274
299 301 304 305 306 307 305 303 303 303 304 304 303 302 301 300 299 299 297 294 294 293 292 289 286 284 282 281 280 278 276 274 274 274 272 271 272 273 274 276 277 276 276
298 299 301 302 303 305 306 304 303 304 304 304 304 304 303 302 300 300 300 298 296 295 293 292 290 288 286 283 281 279 278 276 275 275 273 272 273 274 274 276 277 277 277
298 298 299 300 301 302 304 304 303 303 304 305 304 304 305 304 301 300 301 301 298 296 294 293 291 289 288 286 284 282 280 278 276 276 276 275 275 276 276 275 275 276 276
297 297 297 298 299 301 302 303 302 301 302 303 303 303 303 303 302 301 302 301 299 297 295 293 293 293 291 289 288 285 283 282 281 280 279 278 276 276 275 275 274 273 274
296 297 297 297 298 300 301 302 302 301 301 302 302 302 301 301 300 300 300 300 298 297 295 292 292 292 292 291 290 288 287 285 285 284 281 279 277 277 277 276 275 274 274
296 296 297 297 298 298 299 301 302 302 301 301 302 302 301 300 299 298 298 298 298 296 295 293 292 291 290 290 289 288 287 286 284 283 281 279 278 278 279 278 276 276 275
296 296 297 297 297 298 298 299 300 301 302 302 302 301 300 299 299 299 298 297 297 296 294 292 291 291 290 289 288 288 287 286 285 284 282 281 280 280 280 280 278 277 276
296 297 297 297 298 298 298 298 299 300 301 301 301 300 300 299 298 298 297 297 296 295 293 291 290 290 290 288 287 287 287 286 285 285 283 282 282 281 281 280 279 277 276
296 296 296 297 298 298 298 297 297 298 299 299 299 299 299 299 298 297 297 297 296 295 292 290 289 289 289 288 287 287 286 284 284 284 283 283 283 283 282 280 279 279 277
297 296 297 297 298 298 298 298 297 297 298 297 298 298 298 298 297 296 296 297 296 294 293 291 290 290 289 288 286 286 285 284 284 284 284 284 283 282 281 280 279 278 277
296 296 297 297 298 298 299 299 298 297 297 296 296 297 297 296 296 295 294 295 295 294 293 292 291 290 289 288 287 285 284 283 283 283 285 285 284 282 282 281 279 278 277
296 297 297 298 298 298 299 299 299 299 297 296 295 294 295 294 294 293 293 294 293 293 293 292 291 290 289 288 287 284 283 283 282 281 282 283 283 282 282 281 280 279 277
296 297 298 299 299 299 300 300 300 300 298 296 295 294 294 293 292 291 292 292 292 291 291 292 292 291 290 288 286 284 283 282 282 280 280 281 281 281 281 281 280 279 277
296 297 298 299 300 300 299 300 300 300 299 298 295 294 293 291 291 290 290 291 290 290 290 291 292 291 290 288 285 284 283 283 283 281 282 282 281 280 279 278 278 276 274
297 298 299 300 300 300 300 301 301 300 299 298 296 294 293 291 291 290 290 290 289 289 290 291 291 290 289 288 286 284 283 284 283 282 282 282 281 279 278 276 275 273 271
299 299 300 301 301 301 301 302 302 301 300 298 297 295 293 291 291 291 290 289 289 289 289 291 291 289 288 286 286 285 284 284 284 283 282 282 280 278 275 274 274 272 270
Height
5648 5646 5644 5642 5640 5637 5635 5633 5631 5629 5628 5627 5626 5626 5627 5627 5628 5628 5628 5628 5629 5630 5631 5633 5635 5636 5638 5639 5640 5641 5642 5643 5645 5648 5648 5648 5648 5648 5648 5648 5648 5648 5647
5642 5640 5638 5636 5633 5631 5629 5626 5624 5622 5620 5619 5618 5618 5618 5618 5618 5618 5618 5617 5617 5618 5619 5621 5622 5623 5625 5626 5627 5627 5628 5629 5630 5632 5633 5634 5634 5633 5633 5633 5632 5632 5632
5636 5634 5632 5630 5628 5625 5623 5620 5618 5616 5614 5612 5611 5611 5610 5610 5609 5609 5608 5607 5607 5607 5608 5609 5609 5610 5611 5612 5613 5613 5614 5614 5614 5616 5618 5618 5618 5618 5617 5617 5617 5616 5616
5631 5629 5627 5625 5622 5620 5617 5615 5613 5611 5609 5607 5606 5604 5603 5602 5601 5600 5599 5598 5597 5596 5596 5596 5596 5597 5597 5598 5598 5598 5599 5599 5600 5600 5602 5602 5603 5602 5602 5602 5602 5602 5601
5626 5624 5622 5620 5617 5615 5613 5610 5608 5606 5604 5602 5600 5599 5597 5595 5594 5591 5589 5587 5586 5586 5585 5585 5585 5584 5583 5583 5584 5584 5584 5584 5584 5585 5586 5587 5587 5587 5587 5587 5587 5587 5586
5622 5620 5618 5616 5613 5611 5609 5606 5604 5601 5599 5597 5595 5593 5590 5588 5585 5583 5580 5578 5577 5576 5575 5574 5573 5572 5571 5570 5570 5569 5568 5568 5569 5570 5570 5571 5572 5573 5572 5572 5572 5572 5573
5619 5617 5614 5612 5609 5606 5604 5601 5598 5596 5593 5591 5588 5586 5583 5580 5577 5575 5572 5570 5568 5566 5564 5563 5562 5560 5558 5558 5556 5555 5554 5553 5554 5555 5555 5555 5557 5558 5559 5559 5558 5557 5557
5615 5612 5610 5607 5604 5601 5599 5596 5593 5590 5587 5584 5582 5579 5576 5573 5569 5566 5563 5561 5558 5556 5553 5551 5550 5548 5546 5545 5543 5542 5541 5540 5540 5540 5541 5542 5541 5542 5543 5543 5543 5543 5543
5610 5607 5605 5602 5599 5596 5593 5590 5587 5584 5581 5577 5574 5571 5568 5565 5561 5558 5555 5552 5549 5546 5543 5540 5538 5536 5534 5532 5530 5529 5528 5527 5526 5525 5526 5526 5527 5527 5528 5528 5528 5528 5529
5604 5602 5599 5596 5593 5590 5587 5584 5581 5578 5574 5571 5567 5563 5560 5556 5553 5549 5545 5542 5539 5536 5532 5529 5527 5524 5521 5519 5517 5516 5515 5514 5514 5513 5513 5513 5513 5514 5514 5514 5514 5514 5514
5598 5596 5593 5590 5587 5584 5581 5577 5574 5571 5567 5563 5559 5555 5551 5547 5543 5539 5535 5531 5528 5525 5522 5519 5515 5512 5510 5507 5505 5503 5502 5501 5501 5500 5500 5501 5501 5501 5501 5501 5500 5500 5501
5592 5589 5586 5583 5580 5577 5574 5570 5566 5563 5559 5555 5551 5547 5542 5538 5534 5530 5526 5522 5518 5515 5512 5509 5505 5502 5499 5496 5494 5492 5491 5490 5489 5489 5488 5488 5489 5489 5489 5489 5488 5487 5488
5584 5582 5579 5576 5572 5569 5566 5562 5558 5554 5551 5547 5543 5538 5534 5529 5524 5520 5517 5513 5508 5505 5502 5499 5496 5493 5490 5487 5485 5482 5480 5479 5478 5478 5477 5478 5478 5478 5478 5478 5477 5476 5476
5577 5574 5570 5567 5564 5560 5556 5553 5549 5545 5541 5537 5533 5529 5525 5520 5515 5511 5507 5503 5499 5496 5492 5489 5486 5483 5480 5477 5475 5473 5471 5469 5468 5468 5467 5467 5467 5466 5466 5466 5466 5466 5465
5568 5565 5561 5558 5555 5551 5547 5543 5539 5535 5531 5527 5523 5519 5515 5511 5506 5501 5497 5494 5490 5486 5483 5480 5477 5473 5471 5468 5465 5463 5461 5460 5458 5457 5457 5456 5456 5456 5455 5455 5454 5454 5454
5558 5555 5552 5548 5545 5541 5537 5533 5528 5524 5520 5515 5511 5507 5503 5499 5495 5491 5487 5483 5479 5476 5473 5470 5467 5464 5461 5458 5456 5453 5451 5450 5449 5447 5447 5446 5446 5446 5445 5444 5443 5443 5442
5548 5545 5541 5538 5534 5530 5526 5522 5518 5514 5509 5504 5500 5496 5492 5487 5483 5479 5475 5471 5468 5464 5461 5458 5456 5453 5450 5448 5445 5443 5442 5440 5439 5437 5436 5436 5435 5435 5434 5433 5432 5432 5432
5537 5534 5530 5526 5522 5518 5514 5510 5506 5502 5498 5493 5488 5484 5480 5476 5472 5467 5464 5460 5457 5453 5450 5447 5444 5441 5439 5437 5435 5433 5431 5430 5428 5427 5426 5425 5425 5424 5423 5423 5422 5421 5421
5526 5522 5518 5514 5510 5505 5501 5497 5493 5489 5485 5481 5477 5472 5468 5464 5459 5456 5452 5448 5445 5441 5438 5435 5433 5431 5428 5426 5424 5423 5421 5420 5418 5417 5416 5415 5414 5413 5413 5412 5412 5411 5411
5514 5509 5505 5501 5497 5492 5488 5484 5480 5476 5472 5468 5465 5460 5456 5452 5448 5444 5440 5437 5433 5430 5427 5424 5422 5420 5418 5416 5414 5412 5411 5410 5409 5408 5406 5405 5404 5404 5403 5403 5402 5402 5402
5501 5497 5492 5488 5484 5479 5475 5471 5467 5463 5459 5455 5452 5447 5443 5439 5435 5432 5429 5425 5422 5419 5416 5414 5411 5409 5407 5405 5403 5402 5401 5400 5399 5398 5397 5396 5395 5395 5394 5393 5393 5393 5393
5488 5484 5480 5476 5471 5467 5462 5458 5453 5449 5445 5442 5438 5434 5430 5426 5423 5420 5417 5414 5411 5408 5406 5403 5401 5398 5396 5395 5393 5392 5391 5390 5389 5389 5388 5387 5386 5386 5385 5385 5384 5384 5384
5476 5472 5468 5463 5458 5454 5449 5445 5440 5436 5432 5428 5424 5420 5417 5414 5410 5408 5405 5402 5400 5397 5395 5393 5390 5388 5386 5384 5383 5382 5381 5380 5380 5379 5378 5378 5377 5377 5377 5376 5376 5376 5376
5463 5459 5455 5450 5446 5441 5437 5432 5427 5422 5418 5414 5410 5407 5403 5401 5398 5396 5393 5391 5389 5387 5384 5382 5380 5378 5376 5374 5373 5372 5372 5371 5370 5370 5369 5369 5368 5368 5368 5368 5368 5368 5369
5451 5447 5442 5438 5433 5428 5424 5419 5414 5409 5405 5401 5397 5394 5391 5388 5386 5384 5382 5380 5378 5376 5375 5373 5371 5369 5367 5366 5364 5364 5363 5362 5362 5361 5360 5360 5360 5360 5360 5360 5360 5360 5361
5439 5435 5430 5425 5420 5416 5411 5406 5402 5397 5393 5389 5385 5382 5379 5377 5375 5373 5371 5370 5368 5367 5365 5364 5362 5360 5359 5358 5356 5355 5355 5354 5353 5352 5352 5351 5351 5351 5352 5352 5352 5353 5353